Home > Weather > Horten > Past weeks

Flag for Norway Past Weather in Horten, Norway — Yesterday and Last 2 Weeks

Now
59 °F

Scattered clouds.


Feels Like: 58 °F
Forecast: 59 / 70 °F
Wind: 7 mph from West

Location: Oseberg

Current Time: Jul 27, 2016 at 7:26:09 PM

Latest Report: Jul 27, 2016 at 6:50 PM


Visibility: N/A

Pressure: 29.71 "Hg

Humidity: 72%

Dew Point: 50 °F

Location of HortenLocation

Past Weather in Horten — Graph

°F

Horten Temperature Yesterday

Maximum temperature yesterday: 57 °F (at 12:50 AM)
Minimum temperature yesterday: 54 °F (at 8:20 AM)
Average temperature yesterday: 56 °F

High & Low Weather Summary for the Past Weeks

 TemperatureHumidityPressure
High68 °F (Jul 21, 6:50 AM)100% (Jul 12, 5:20 PM)30.12 "Hg (Jul 12, 5:20 PM)
Low52 °F (Jul 14, 7:50 PM)64% (Jul 21, 6:50 AM)29.62 "Hg (Jul 12, 5:20 PM)
Average57 °F90%29.92 "Hg
* Reported Jul 12 5:20 PM — Jul 27 5:50 PM, Horten, Weather by CustomWeather, © 2016

Note: Actual official high and low records may vary slightly from our data, if they occured in-between our weather recording intervals... More about our weather records

Advertising

Horten Weather History for the Previous 24 Hours

Scroll right to see more
 ConditionsComfort  
Time TempWeatherWind HumidityBarometerVisibility
5:50 PM
Wed, Jul 27
57 °FPartly sunny.7 mph82%29.74 "HgN/A
5:20 PM57 °FBroken clouds.8 mph82%29.74 "HgN/A
4:50 PM57 °FPartly sunny.8 mph82%29.74 "HgN/A
4:20 PM57 °FPartly sunny.7 mph82%29.74 "HgN/A
3:50 PM57 °FPartly sunny.8 mph82%29.74 "HgN/A
3:20 PM57 °FBroken clouds.9 mph82%29.74 "HgN/A
2:50 PM55 °FScattered clouds.13 mph88%29.74 "HgN/A
2:20 PM55 °FSunny.10 mph94%29.74 "Hg10 mi
1:50 PM55 °FPassing clouds.12 mph94%29.74 "HgN/A
1:20 PM55 °FPassing clouds.14 mph94%29.74 "HgN/A
12:20 PM55 °FPartly sunny.12 mph94%29.74 "HgN/A
11:50 AM55 °FPartly sunny.14 mph88%29.74 "HgN/A
11:20 AM57 °FPartly sunny.12 mph82%29.74 "HgN/A
10:50 AM57 °FMostly cloudy.14 mph82%29.77 "HgN/A
10:20 AM55 °FPartly sunny.17 mph88%29.77 "HgN/A
9:50 AM57 °FPartly sunny.17 mph88%29.77 "HgN/A
8:50 AM57 °FLow clouds.21 mph88%29.77 "HgN/A
8:20 AM55 °FSprinkles. Low clouds.20 mph100%29.80 "HgN/A
7:20 AM57 °FBroken clouds.23 mph88%29.80 "HgN/A
6:50 AM57 °FScattered clouds.24 mph88%29.80 "HgN/A
5:50 AM57 °FScattered showers. Passing clouds.21 mph88%29.80 "HgN/A
4:50 AM57 °FScattered showers. Partly cloudy.20 mph88%29.83 "HgN/A
4:20 AM57 °FPassing clouds.17 mph94%29.83 "HgN/A
2:50 AM57 °FPassing clouds.18 mph94%29.86 "HgN/A
1:50 AM57 °FPassing clouds.18 mph88%29.89 "HgN/A
12:50 AM57 °FPartly cloudy.20 mph88%29.89 "HgN/A
11:50 PM
Tue, Jul 26
57 °FPassing clouds.18 mph88%29.89 "HgN/A
10:50 PM57 °FBroken clouds.18 mph88%29.92 "HgN/A
9:50 PM55 °FScattered clouds.16 mph94%29.92 "HgN/A
8:50 PM55 °FPartly sunny.15 mph94%29.92 "HgN/A
7:50 PM55 °FPartly sunny.13 mph94%29.92 "HgN/A
Weather by CustomWeather, © 2016

See weather overviewHow to use our weather pages